Location: Bartshausen
(51.8454°N, 9.8167°E)
Time: 03:11:57
(UTC+00:00)

Resurs 1-4 Rocket - Pass Details

Date: 08 November 2025
Orbit: 799 x 811 km, 98.8° (Epoch: 15 December)

Event Time Altitude Azimuth Distance (km) Brightness Sun altitude
Rises 03:44:28 0° 7° (N) 3,335 5.5 -25.3°
Reaches altitude 10° 03:47:21 10° 351° (N) 2,402 4.5 -24.9°
Enters shadow 03:48:20 14° 343° (NNW) 2,151 4.2 -24.7°
